Regional Weather Roundup
Issued by NWS

Home | Current Version | Previous Version | Graphics & Text | Print | Product List | Glossary On
Versions: 1 2 3 4 5 6 7 8 9 10 11 12 13 14 15 16 17 18 19 20 21 22 23 24 25 26 27 28 29 30 31 32 33 34 35 36 37 38 39 40 41 42 43 44 45 46 47 48 49 50
000
ASUS45 KBOU 210307
RWRCO

WEATHER ROUNDUP FOR COLORADO
NATIONAL WEATHER SERVICE DENVER/BOULDER CO
900 PM MDT WED AUG 20 2014

NOTE: "FAIR" INDICATES FEW OR NO CLOUDS BELOW 12000 FEET WITH NO
SIGNIFICANT WEATHER AND/OR OBSTRUCTIONS TO VISIBILITY.

COZ001>005-013-030-031-210400-
...NORTHWEST COLORADO...

CITY           SKY/WX    TMP DP  RH WIND       PRES   REMARKS
CRAIG          LGT RAIN  56  51  84 SE8       30.15R
HAYDEN         MOCLDY    55  48  76 NW13G26   30.16R THUNDER
MEEKER         MOCLDY    61  49  64 NW15G22   30.16R
MOUNT WERNER   NOT AVBL
STEAMBOAT SPGS MOCLDY    56  51  82 E5        30.13S
WALDEN         PTCLDY    50  45  81 CALM      30.21S
$$

COZ006>008-011-210400-
...WEST CENTRAL VALLEYS...

CITY           SKY/WX    TMP DP  RH WIND       PRES   REMARKS
GRAND JUNCTION MOCLDY    69  47  45 NW9       30.03R
MONTROSE       PTCLDY    68  46  45 N6        30.10R
EAGLE          CLEAR     63  50  63 E9        30.13R
RIFLE          PTCLDY    73  46  38 W9        30.04R
DELTA          NOT AVBL
NUCLA          LGT RAIN  61  54  77 N12       30.17S
$$

COZ017>023-064>068-210400-
...SOUTHWEST COLORADO...

CITY           SKY/WX    TMP DP  RH WIND       PRES   REMARKS
DURANGO        CLEAR     69  37  30 W9        30.13R
CORTEZ         CLEAR     65  40  39 S3        30.11R
PAGOSA SPRINGS CLEAR     62  40  45 CALM      30.20R
TELLURIDE      PTCLDY    59  41  51 W3        30.32R
WOLF CREEK PAS NOT AVBL
$$

COZ009-010-012-014-032>034-037-058>063-210400-
...CENTRAL COLORADO...

CITY           SKY/WX    TMP DP  RH WIND       PRES   REMARKS
ASPEN          PTCLDY    56  48  74 SW7       30.20R
BUENA VISTA    MOCLDY    65  42  43 E6        30.18R
COPPER MTN     PTCLDY    46  37  71 W16       30.49R
BERTHOUD PASS  FAIR      39  37  93 NW12      30.52R
COTTONWOOD PAS CLOUDY    63  34  34 W18G26    30.32R
GUNNISON       CLOUDY    64  39  39 W6        30.22R
KREMMLING      CLEAR     55  45  67 CALM      30.20R
LEADVILLE      MOCLDY    54  40  59 NW8       30.32R
MONARCH PASS   MOCLDY    45  36  70 W18       30.58R
SALIDA         CLOUDY    69  41  36 SW5       30.22R
SUNLIGHT       TSTM      50  46  87 SW3       30.42R
WILKERSON PASS CLOUDY    52  37  58 NW3       30.45R
$$

COZ069>075-210400-
...SAN LUIS VALLEY/SANGRE DE CRISTO MOUNTAINS...

CITY           SKY/WX    TMP DP  RH WIND       PRES   REMARKS
ALAMOSA        PTCLDY    65  44  46 VRB6      30.16R
LA VETA PASS   NOT AVBL
SAGUACHE       MOCLDY    59  46  63 NW15      30.20R
$$

COZ035-036-038>040-210400-
...NORTHERN COLORADO FRONT RANGE...

CITY           SKY/WX    TMP DP  RH WIND       PRES   REMARKS
DENVER INTL AP MOCLDY    71  52  50 N14       29.97R
DMNS CITY PARK   N/A     74  47  37 N5G12     29.98R
AURORA         MOCLDY    73  54  51 NW7       30.00R
FRONT RANGE AP NOT AVBL
ERIE MUNI ARPT MOCLDY    75  47  36 E3        29.98R
BOULDER MUN AP MOCLDY    72  50  46 N8        29.98R
CENTENNIAL     MOCLDY    70  52  52 CALM      30.01R
BROOMFIELD     MOCLDY    70  52  52 CALM      30.02R
FORT COLLINS   PTCLDY    72  50  46 NE7       29.96R
LONGMONT       PTCLDY    73  51  45 SE3       29.98R
$$

COZ041-046-047-076>085-087-088-210400-
...PIKES PEAK/PALMER DIVIDE AND SOUTHERN FOOTHILLS...

CITY           SKY/WX    TMP DP  RH WIND       PRES   REMARKS
COLO. SPRINGS  MOCLDY    72  51  47 N7        30.04R THUNDER
A. F. ACADEMY  MOCLDY    67  53  61 N2        30.06R
ELLICOTT       MOCLDY    71  49  45 E10       30.01R THUNDER
FALCON         CLOUDY    68  50  52 N9        30.09R
FORT CARSON    CLOUDY    72  55  56 SE9       30.01R
LIMON          PTCLDY    68  52  56 VRB3      29.96R
MONUMENT HILL  CLOUDY    63  52  67 NW3       30.09F
TRINIDAD       PTCLDY    72  51  47 NW5       29.97R
$$

COZ042>045-048>051-090-091-210400-
...NORTHEAST COLORADO...

CITY           SKY/WX    TMP DP  RH WIND       PRES   REMARKS
GREELEY ARPT   PTCLDY    64  54  68 NE7       29.95R
AKRON          PTCLDY    73  54  51 SE3       29.91R
BURLINGTON     MOCLDY    73  57  57 N6        29.87F
WRAY             N/A     72  60  66 N5        29.84S
STERLING       MOCLDY    77  61  57 N23       29.89R
HOLYOKE        NOT AVBL
FORT MORGAN    PTCLDY    69  52  54 N20G29    29.94R
$$

COZ086-089-092>099-210400-
...SOUTHEAST COLORADO...

CITY           SKY/WX    TMP DP  RH WIND       PRES   REMARKS
PUEBLO         MOCLDY    79  53  40 N12       29.90R
LA JUNTA       PTCLDY    82  51  34 S8        29.84R
LAMAR          MOCLDY    82  49  31 E5        29.79S
SPRINGFIELD      N/A     82  53  36 S13       29.90R
$$


USA.gov is the U.S. government's official web portal to all federal, state and local government web resources and services.